Weather in Pankrushikha

Russia / Altai Krai     53°49′46″N   80°20′32″E
temp.,
°C
wind,
m/s
gust,
m/s
humid.,
%
clouds,
%
prec.,
mm/h
press.,
hPa
HPBL,
m
11 may, tue
tue1101:00+11nne61350100 0.0 1017459
04:00+8nne5105923 0.0 1016267
07:00+8nne4116796 0.0 1016273
10:00+14nne711444 0.0 10161735
13:00+17nne793294 0.0 10162887
16:00+19nne7930100 0.0 10152801
19:00+17n6837100 0.0 10172322
22:00+13nne6135376 0.2 1019595
12 may, wed
wed1201:00+10n4106543 0.3 1019257
04:00+9n411715 0.0 1019229
07:00+9n410705 0.0 1020263
10:00+15n58495 0.0 1020881
13:00+18nnw55355 0.0 10192165
16:00+19nw543067 0.0 10182566
19:00+18nw443199 0.0 10182439
22:00+13nw223795 0.0 101823
13 may, thu
thu1301:00+11w3540100 0.0 101866
04:00+10w2270100 0.0 101620
07:00+10wsw247898 0.0 1016119
10:00+14s1158100 0.0 1016856
13:00+13ne4367100 0.4 1016799
16:00+11nw348391 0.6 1016242
19:00+15nnw235288 0.6 10161258
22:00+11n3664100 0.0 1018112
14 may, fri
fri1401:00+8nnw22695 0.0 101813
04:00+7nw346352 0.0 101845
07:00+9nw25545 0.0 1020130
10:00+14nnw564857 0.0 1020765
13:00+16nnw6741100 0.0 10211447
16:00+17nnw6731100 0.0 10221582
19:00+16nnw562823 0.0 10231380
22:00+11n22398 0.0 102511
15 may, sat
sat1501:00+9wsw2239100 0.0 102510
04:00+9sw334471 0.0 102531
07:00+9sw37525 0.0 1024143
10:00+16wsw58356 0.0 1024547
13:00+21wsw562922 0.0 10221226
16:00+23wsw463136 0.0 10201957
19:00+23wsw47378 0.0 10191807
22:00+19ssw510466 0.0 1018191